World > North America > United States > Texas > Mabank  

Mabank, TX Hourly Weather Updates

Feedback E-mail the Weather

Quick Clicks

Mabank, TX Weather Maps

°F °C°F °C
Mabank Weather Map
UTC Time: 6/19/2024, 13:26
Your Time:

Mabank, TX Regional Weather

Expires:202406191400;;293523
ASUS44 KFWD 191315
RWRTX 
NORTH TEXAS HOURLY WEATHER ROUNDUP
NATIONAL WEATHER SERVICE FORT WORTH TX
800 AM CDT WED JUN 19 2024

NOTE: "FAIR" INDICATES FEW OR NO CLOUDS BELOW 12,000 FEET WITH NO
SIGNIFICANT WEATHER AND/OR OBSTRUCTIONS TO VISIBILITY.


TXZ091>094-102>105-117-120-121-131>134-191400-
NORTH CENTRAL TEXAS
  
CITY           SKY/WX    TMP DP  RH WIND       PRES   REMARKS
SHRMAN/DENISON SUNNY     75  72  88 E8        30.09R                  
GAINESVILLE    FAIR      75  73  93 E9        30.10R                  
BOWIE          FAIR      73  69  89 E5        30.08R                  
BRIDGEPORT     FAIR      75  69  84 E7        30.08R                  
DECATUR        FAIR      73  69  86 CALM      30.06R                  
DENTON         PTSUNNY   77  71  82 NE7       30.06R                  
MCKINNEY       CLOUDY    75  71  87 NE8       30.07R                  
BONHAM         CLOUDY    75  74  96 E8        30.10R                  
GREENVILLE     CLOUDY    74  73  99 NE7       30.07R                  
ROCKWALL       CLOUDY    75  75  98 E7        30.06R                  
TERRELL        FAIR      76  71  85 E12       30.04R                  
WAXAHACHIE     CLOUDY    74  72  92 E8        30.04R                  
CLEBURNE       PTSUNNY   73  73 100 E9G15     30.05R                  
GRANBURY       FAIR      74  69  85 CALM      30.04R                  
$$


SKY/WX - Weather  TMP - Temperature  DP - Dew Point  RH - Humidity
WIND - Wind Direction/Speed PRES - Barometric Pressure VSB - Visibility
WCI - Wind Chill Index E13G22 Wind - East Wind 13 mph/Gusts of 22 mph

Trending Headlines

Trending Entertainment Headlines

Mabank Radar Loop

Use the map search tool if you want to place a location marker on the radar map...

Mabank Quick Facts

National Two Day Weather Forecast


E-mail the Mabank Weather Forecast

Voice your opinion or tell us about page issues...